Location: Eastchurch
(51.4000°N, 0.8667°E)
Time: 07:01:58
(UTC+00:00)

Cosmos 1703 - Pass Details

Date: 19 January 2026
Orbit: 413 x 424 km, 82.5° (Epoch: 18 February)

Event Time Altitude Azimuth Distance (km) Brightness Sun altitude
Rises 17:33:13 0° 195° (SSW) 2,392 7.1 -10.6°
Reaches altitude 10° 17:35:15 10° 198° (SSW) 1,529 6.1 -10.9°
Maximum altitude 17:38:34 68° 282° (WNW) 468 3.1 -11.4°
Drops below altitude 10° 17:41:54 10° 6° (N) 1,534 5.4 -11.8°
Enters shadow 17:43:50 - 9° (N) 2,348 6.3 -12.1°
